Precipitable_Water
0.21 0.15 0.12 0.12 0.13 0.16 0.19 0.20 0.22 0.26 0.24 0.24 0.25 0.23 0.25 0.24 0.23 0.23 0.22 0.20 0.20 0.19 0.19 0.19 0.20 0.22 0.24 0.33 0.45 0.50 0.58 0.54 0.49 0.50 0.54 0.58 0.61 0.64 0.66 0.68 0.70 0.71 0.72 0.86 0.92 0.94 0.97 0.96 0.99 1.04 1.05 1.01 0.96 0.93 0.95 0.97 0.98 0.99 0.95 0.87 0.70 0.71 0.72 0.69 0.68 0.69 0.71 0.70 0.72 0.75 0.74 0.72 0.75 0.76 0.78 0.79 0.84 0.85 0.85 0.84 0.81 0.82 0.84 0.91 0.98 1.02
0.22 0.15 0.14 0.18 0.21 0.22 0.22 0.25 0.30 0.31 0.30 0.25 0.25 0.25 0.24 0.24 0.22 0.24 0.22 0.21 0.22 0.20 0.21 0.23 0.21 0.22 0.24 0.26 0.30 0.38 0.54 0.49 0.47 0.50 0.53 0.56 0.59 0.59 0.59 0.62 0.66 0.71 0.81 0.85 0.87 0.89 0.91 0.93 1.01 1.06 1.05 1.01 0.93 0.94 0.93 0.92 0.95 0.96 0.93 0.75 0.66 0.69 0.68 0.67 0.65 0.64 0.66 0.71 0.72 0.72 0.73 0.73 0.73 0.71 0.68 0.65 0.69 0.72 0.74 0.76 0.79 0.83 0.83 0.82 0.84 0.92
0.17 0.14 0.18 0.23 0.25 0.26 0.26 0.30 0.33 0.31 0.28 0.27 0.26 0.26 0.24 0.23 0.24 0.25 0.26 0.26 0.25 0.23 0.22 0.25 0.24 0.25 0.26 0.27 0.29 0.31 0.39 0.48 0.49 0.48 0.50 0.53 0.57 0.57 0.59 0.61 0.64 0.66 0.68 0.75 0.80 0.82 0.85 0.90 0.98 1.01 1.03 1.03 1.00 0.97 0.93 0.93 0.91 0.91 0.82 0.68 0.66 0.68 0.66 0.66 0.67 0.66 0.69 0.76 0.80 0.79 0.79 0.76 0.74 0.78 0.73 0.62 0.60 0.61 0.60 0.64 0.65 0.68 0.73 0.76 0.78 0.78
0.16 0.20 0.24 0.27 0.27 0.26 0.25 0.27 0.30 0.28 0.27 0.25 0.25 0.24 0.22 0.24 0.22 0.20 0.24 0.29 0.28 0.25 0.25 0.26 0.23 0.24 0.27 0.29 0.30 0.34 0.37 0.45 0.51 0.53 0.53 0.53 0.52 0.55 0.57 0.60 0.62 0.61 0.61 0.62 0.66 0.71 0.83 0.89 0.94 0.98 1.00 1.03 1.02 0.98 0.94 0.88 0.83 0.81 0.72 0.68 0.67 0.68 0.70 0.69 0.73 0.77 0.80 0.81 0.84 0.86 0.84 0.82 0.76 0.67 0.70 0.65 0.62 0.58 0.57 0.57 0.61 0.62 0.64 0.64 0.65 0.67
0.19 0.23 0.27 0.28 0.29 0.27 0.24 0.26 0.26 0.25 0.23 0.25 0.24 0.25 0.24 0.23 0.23 0.24 0.24 0.30 0.31 0.31 0.30 0.27 0.24 0.22 0.26 0.25 0.29 0.34 0.43 0.45 0.51 0.52 0.54 0.53 0.53 0.54 0.60 0.64 0.64 0.61 0.62 0.64 0.67 0.74 0.80 0.83 0.89 0.94 0.98 1.02 1.00 0.97 0.91 0.84 0.77 0.73 0.70 0.69 0.67 0.69 0.74 0.77 0.80 0.82 0.83 0.81 0.82 0.83 0.83 0.81 0.76 0.70 0.59 0.52 0.51 0.53 0.55 0.54 0.54 0.55 0.60 0.61 0.62 0.66
0.21 0.24 0.26 0.25 0.27 0.28 0.27 0.25 0.26 0.25 0.22 0.23 0.25 0.24 0.25 0.27 0.24 0.25 0.29 0.29 0.27 0.26 0.29 0.27 0.21 0.21 0.25 0.27 0.26 0.31 0.39 0.41 0.48 0.45 0.47 0.52 0.56 0.59 0.58 0.58 0.63 0.67 0.67 0.63 0.63 0.67 0.76 0.81 0.87 0.91 0.94 0.96 0.99 0.97 0.93 0.86 0.77 0.74 0.74 0.73 0.68 0.74 0.80 0.81 0.83 0.84 0.82 0.79 0.75 0.74 0.69 0.66 0.63 0.56 0.50 0.45 0.44 0.49 0.50 0.52 0.60 0.61 0.63 0.62 0.61 0.62
0.21 0.24 0.25 0.24 0.27 0.27 0.26 0.25 0.26 0.25 0.21 0.18 0.19 0.28 0.29 0.30 0.29 0.27 0.26 0.26 0.23 0.21 0.30 0.31 0.21 0.20 0.26 0.26 0.28 0.29 0.31 0.37 0.44 0.43 0.45 0.51 0.55 0.57 0.58 0.57 0.57 0.60 0.68 0.74 0.70 0.73 0.78 0.82 0.85 0.89 0.89 0.92 0.94 0.99 0.97 0.88 0.78 0.77 0.76 0.75 0.70 0.76 0.80 0.82 0.84 0.84 0.82 0.78 0.75 0.71 0.67 0.65 0.60 0.54 0.54 0.55 0.56 0.55 0.56 0.58 0.58 0.61 0.65 0.67 0.63 0.61
0.24 0.25 0.25 0.28 0.28 0.27 0.25 0.23 0.26 0.25 0.21 0.17 0.21 0.23 0.28 0.29 0.28 0.28 0.27 0.27 0.25 0.29 0.29 0.31 0.27 0.20 0.20 0.25 0.30 0.31 0.29 0.33 0.37 0.39 0.44 0.49 0.53 0.56 0.60 0.60 0.58 0.62 0.67 0.71 0.75 0.77 0.80 0.82 0.83 0.84 0.92 0.95 0.98 1.03 1.00 0.90 0.81 0.78 0.77 0.74 0.73 0.80 0.80 0.78 0.81 0.82 0.81 0.76 0.75 0.73 0.71 0.68 0.63 0.58 0.56 0.58 0.57 0.56 0.54 0.51 0.50 0.54 0.58 0.64 0.65 0.61
0.24 0.24 0.26 0.26 0.26 0.26 0.24 0.24 0.26 0.25 0.20 0.18 0.21 0.26 0.28 0.30 0.29 0.28 0.26 0.26 0.26 0.24 0.21 0.26 0.28 0.20 0.20 0.25 0.30 0.32 0.28 0.29 0.30 0.33 0.38 0.48 0.54 0.58 0.61 0.61 0.62 0.67 0.71 0.73 0.73 0.75 0.77 0.79 0.83 0.88 0.88 0.94 0.99 1.01 0.98 0.94 0.86 0.83 0.83 0.77 0.75 0.80 0.79 0.77 0.80 0.80 0.80 0.79 0.78 0.76 0.73 0.66 0.66 0.66 0.63 0.61 0.59 0.56 0.56 0.51 0.50 0.50 0.50 0.53 0.58 0.60
0.27 0.27 0.29 0.27 0.26 0.24 0.26 0.27 0.27 0.26 0.21 0.22 0.25 0.26 0.29 0.30 0.29 0.28 0.26 0.24 0.26 0.23 0.20 0.23 0.26 0.19 0.20 0.24 0.26 0.30 0.27 0.28 0.30 0.33 0.35 0.40 0.48 0.55 0.59 0.63 0.67 0.69 0.71 0.73 0.73 0.74 0.77 0.82 0.86 0.88 0.93 0.96 0.97 1.00 1.02 1.03 1.00 0.90 0.88 0.84 0.76 0.78 0.79 0.77 0.79 0.81 0.80 0.81 0.79 0.76 0.73 0.66 0.67 0.69 0.66 0.61 0.57 0.57 0.56 0.51 0.49 0.47 0.46 0.45 0.48 0.53
0.27 0.29 0.32 0.29 0.26 0.27 0.27 0.26 0.26 0.25 0.24 0.27 0.25 0.23 0.25 0.27 0.27 0.27 0.26 0.25 0.23 0.19 0.21 0.25 0.29 0.24 0.18 0.22 0.26 0.25 0.27 0.29 0.33 0.35 0.38 0.44 0.49 0.56 0.60 0.64 0.68 0.69 0.72 0.74 0.74 0.75 0.77 0.83 0.85 0.91 0.91 0.94 1.00 1.03 1.03 1.01 1.01 1.01 0.93 0.89 0.82 0.80 0.80 0.78 0.77 0.79 0.78 0.80 0.77 0.76 0.75 0.69 0.68 0.69 0.63 0.58 0.56 0.56 0.54 0.49 0.47 0.44 0.43 0.44 0.43 0.46
0.26 0.27 0.27 0.28 0.29 0.28 0.28 0.24 0.24 0.25 0.23 0.22 0.23 0.22 0.22 0.21 0.23 0.22 0.21 0.23 0.17 0.17 0.24 0.28 0.27 0.28 0.19 0.22 0.26 0.30 0.32 0.35 0.35 0.36 0.38 0.43 0.50 0.55 0.62 0.68 0.70 0.71 0.72 0.73 0.75 0.76 0.80 0.83 0.85 0.89 0.90 0.93 0.96 0.99 1.00 0.98 0.99 0.99 0.99 0.96 0.88 0.84 0.80 0.78 0.78 0.82 0.80 0.75 0.73 0.75 0.77 0.75 0.74 0.69 0.63 0.55 0.52 0.53 0.52 0.49 0.46 0.45 0.43 0.42 0.42 0.42
0.23 0.24 0.27 0.26 0.29 0.26 0.26 0.22 0.22 0.23 0.23 0.21 0.23 0.23 0.19 0.18 0.18 0.16 0.19 0.16 0.16 0.16 0.25 0.29 0.28 0.23 0.23 0.26 0.30 0.33 0.34 0.39 0.40 0.38 0.39 0.43 0.49 0.56 0.62 0.66 0.70 0.72 0.74 0.75 0.76 0.77 0.79 0.80 0.80 0.82 0.86 0.90 0.91 0.92 0.96 0.97 0.98 0.99 0.99 1.00 0.96 0.90 0.88 0.81 0.80 0.86 0.79 0.70 0.68 0.76 0.80 0.83 0.81 0.73 0.64 0.56 0.53 0.54 0.52 0.49 0.45 0.44 0.40 0.39 0.38 0.38
0.21 0.25 0.26 0.25 0.26 0.27 0.25 0.20 0.19 0.20 0.22 0.21 0.21 0.21 0.19 0.17 0.16 0.15 0.18 0.21 0.22 0.25 0.28 0.28 0.28 0.22 0.29 0.30 0.34 0.33 0.36 0.41 0.44 0.45 0.45 0.46 0.51 0.57 0.62 0.68 0.72 0.75 0.75 0.76 0.77 0.78 0.79 0.80 0.82 0.82 0.82 0.82 0.85 0.91 0.94 0.97 0.97 0.98 0.98 1.00 0.99 0.99 1.00 0.90 0.86 0.92 0.80 0.68 0.68 0.78 0.88 0.90 0.86 0.77 0.68 0.61 0.55 0.56 0.54 0.50 0.46 0.44 0.41 0.38 0.36 0.36
0.18 0.18 0.22 0.24 0.22 0.26 0.25 0.24 0.21 0.20 0.21 0.20 0.22 0.21 0.20 0.19 0.16 0.13 0.14 0.15 0.18 0.21 0.26 0.29 0.23 0.22 0.22 0.29 0.38 0.40 0.44 0.46 0.48 0.50 0.55 0.58 0.60 0.62 0.65 0.68 0.71 0.73 0.76 0.79 0.80 0.80 0.81 0.82 0.82 0.78 0.76 0.76 0.81 0.87 0.93 0.97 1.00 1.01 1.02 1.02 1.03 1.05 1.10 1.09 1.02 1.01 0.81 0.69 0.76 0.85 0.92 0.93 0.89 0.85 0.73 0.67 0.61 0.58 0.56 0.55 0.50 0.48 0.47 0.43 0.41 0.40
0.20 0.20 0.27 0.29 0.28 0.27 0.26 0.25 0.23 0.20 0.20 0.21 0.21 0.22 0.19 0.17 0.21 0.15 0.20 0.18 0.18 0.20 0.21 0.23 0.23 0.30 0.28 0.38 0.42 0.46 0.49 0.51 0.56 0.57 0.59 0.61 0.64 0.64 0.63 0.64 0.66 0.69 0.73 0.77 0.77 0.77 0.79 0.79 0.77 0.75 0.73 0.75 0.78 0.82 0.86 0.90 0.95 0.99 1.01 1.04 1.09 1.17 1.15 1.12 1.02 0.98 0.86 0.75 0.82 0.87 0.90 0.96 0.94 0.90 0.80 0.71 0.68 0.63 0.61 0.59 0.56 0.52 0.52 0.51 0.50 0.49
0.22 0.21 0.26 0.27 0.29 0.28 0.27 0.26 0.22 0.21 0.16 0.20 0.20 0.19 0.21 0.27 0.25 0.22 0.24 0.26 0.23 0.21 0.18 0.25 0.23 0.28 0.35 0.36 0.40 0.43 0.46 0.49 0.54 0.56 0.58 0.62 0.66 0.68 0.66 0.67 0.66 0.66 0.68 0.69 0.68 0.71 0.71 0.69 0.69 0.69 0.70 0.74 0.78 0.80 0.82 0.87 0.90 0.91 0.93 0.93 0.95 1.01 1.01 1.01 1.04 1.03 0.95 0.76 0.82 0.87 0.92 0.95 0.96 0.92 0.84 0.75 0.70 0.67 0.66 0.65 0.64 0.62 0.60 0.58 0.56 0.54
0.20 0.21 0.26 0.26 0.24 0.27 0.29 0.27 0.25 0.23 0.22 0.20 0.18 0.21 0.24 0.31 0.29 0.23 0.18 0.21 0.20 0.17 0.19 0.22 0.21 0.24 0.26 0.25 0.39 0.40 0.41 0.45 0.48 0.51 0.54 0.56 0.63 0.62 0.63 0.64 0.64 0.65 0.68 0.69 0.67 0.65 0.62 0.59 0.60 0.64 0.69 0.73 0.76 0.79 0.82 0.85 0.91 0.96 0.97 0.92 0.92 0.95 0.95 1.00 1.03 1.02 0.99 0.79 0.80 0.86 0.93 0.95 0.95 0.92 0.89 0.83 0.76 0.75 0.72 0.70 0.70 0.72 0.69 0.68 0.63 0.60
0.24 0.20 0.23 0.27 0.27 0.28 0.29 0.27 0.24 0.25 0.24 0.20 0.20 0.23 0.19 0.18 0.18 0.21 0.19 0.16 0.17 0.17 0.19 0.22 0.25 0.26 0.28 0.27 0.35 0.36 0.37 0.40 0.47 0.50 0.49 0.52 0.54 0.55 0.57 0.58 0.61 0.63 0.61 0.58 0.56 0.55 0.56 0.58 0.61 0.65 0.67 0.73 0.78 0.81 0.84 0.87 0.91 0.93 0.93 0.92 0.91 0.91 0.96 1.00 1.04 1.04 1.04 0.88 0.82 0.85 0.88 0.90 0.94 0.93 0.92 0.91 0.84 0.80 0.78 0.75 0.75 0.75 0.76 0.77 0.75 0.70
0.27 0.20 0.21 0.28 0.26 0.28 0.27 0.25 0.20 0.22 0.25 0.25 0.23 0.21 0.23 0.20 0.19 0.17 0.19 0.21 0.19 0.17 0.17 0.20 0.23 0.22 0.30 0.31 0.37 0.36 0.38 0.40 0.46 0.48 0.50 0.51 0.51 0.51 0.51 0.52 0.54 0.54 0.52 0.51 0.52 0.54 0.57 0.61 0.64 0.66 0.68 0.71 0.75 0.79 0.83 0.85 0.89 0.90 0.91 0.92 0.93 0.96 0.98 1.00 1.01 1.05 1.06 1.00 0.89 0.81 0.84 0.88 0.90 0.93 0.95 0.97 0.89 0.84 0.82 0.81 0.81 0.81 0.81 0.79 0.80 0.78
0.24 0.26 0.18 0.23 0.28 0.28 0.21 0.24 0.23 0.24 0.22 0.22 0.21 0.19 0.20 0.22 0.28 0.23 0.24 0.21 0.18 0.17 0.17 0.18 0.19 0.26 0.32 0.39 0.38 0.38 0.39 0.43 0.46 0.48 0.51 0.53 0.54 0.54 0.54 0.54 0.56 0.57 0.56 0.54 0.55 0.56 0.59 0.63 0.67 0.70 0.72 0.73 0.75 0.77 0.79 0.82 0.84 0.86 0.87 0.88 0.92 0.94 0.96 0.95 0.96 0.96 0.98 0.91 0.82 0.83 0.86 0.87 0.87 0.91 0.95 0.99 0.93 0.89 0.89 0.88 0.88 0.87 0.87 0.88 0.85 0.84
0.23 0.22 0.19 0.22 0.22 0.23 0.24 0.27 0.26 0.26 0.25 0.21 0.20 0.19 0.21 0.21 0.20 0.16 0.16 0.24 0.22 0.17 0.17 0.15 0.16 0.27 0.37 0.45 0.41 0.40 0.42 0.45 0.49 0.49 0.52 0.55 0.57 0.58 0.57 0.58 0.59 0.58 0.58 0.56 0.56 0.59 0.61 0.65 0.68 0.70 0.73 0.75 0.75 0.75 0.72 0.74 0.78 0.82 0.82 0.86 0.89 0.94 0.96 0.95 0.96 0.98 1.00 1.01 0.92 0.84 0.86 0.87 0.88 0.90 0.91 0.94 0.93 0.90 0.93 0.94 0.94 0.94 0.93 0.89 0.90 0.92
0.28 0.26 0.22 0.19 0.21 0.23 0.25 0.28 0.28 0.27 0.25 0.23 0.23 0.24 0.24 0.22 0.21 0.19 0.15 0.20 0.21 0.21 0.22 0.21 0.17 0.22 0.38 0.42 0.43 0.40 0.41 0.44 0.47 0.49 0.51 0.55 0.58 0.60 0.61 0.62 0.61 0.60 0.59 0.58 0.57 0.58 0.62 0.66 0.68 0.70 0.72 0.73 0.73 0.74 0.74 0.75 0.75 0.77 0.81 0.83 0.87 0.88 0.92 0.98 0.99 0.99 0.99 0.97 0.90 0.86 0.88 0.89 0.89 0.92 0.92 0.95 0.93 0.92 0.96 0.98 0.96 0.96 0.90 0.88 0.87 0.90
0.35 0.23 0.21 0.21 0.23 0.25 0.26 0.27 0.27 0.27 0.25 0.23 0.23 0.25 0.24 0.21 0.22 0.20 0.19 0.21 0.19 0.22 0.20 0.21 0.18 0.25 0.37 0.41 0.41 0.41 0.42 0.48 0.51 0.50 0.50 0.55 0.58 0.61 0.61 0.61 0.61 0.60 0.60 0.60 0.60 0.58 0.61 0.65 0.68 0.68 0.68 0.70 0.71 0.72 0.73 0.75 0.76 0.79 0.82 0.84 0.87 0.88 0.93 0.97 0.95 0.95 0.93 0.91 0.91 0.90 0.86 0.87 1.08 1.08 1.05 1.03 1.02 1.00 1.01 1.00 0.98 0.98 0.96 0.95 0.96 0.94
0.25 0.26 0.21 0.19 0.17 0.19 0.20 0.21 0.21 0.23 0.23 0.22 0.22 0.23 0.25 0.25 0.24 0.24 0.23 0.24 0.19 0.22 0.21 0.20 0.17 0.24 0.35 0.41 0.42 0.42 0.42 0.44 0.46 0.51 0.53 0.53 0.58 0.60 0.60 0.61 0.62 0.61 0.60 0.59 0.57 0.55 0.55 0.58 0.61 0.64 0.67 0.68 0.70 0.72 0.74 0.75 0.75 0.78 0.80 0.80 0.84 0.87 0.92 0.93 0.90 0.90 0.91 0.93 0.96 0.96 0.90 0.89 0.97 1.02 1.04 1.08 1.08 1.07 1.08 1.06 1.04 1.03 1.00 1.00 1.00 1.00
0.29 0.27 0.23 0.18 0.15 0.13 0.12 0.12 0.13 0.16 0.19 0.22 0.23 0.22 0.23 0.21 0.20 0.19 0.17 0.18 0.15 0.21 0.21 0.20 0.21 0.29 0.36 0.39 0.38 0.38 0.39 0.40 0.45 0.50 0.55 0.57 0.57 0.58 0.58 0.59 0.60 0.58 0.55 0.55 0.54 0.51 0.49 0.51 0.56 0.60 0.65 0.67 0.68 0.71 0.74 0.76 0.77 0.79 0.80 0.80 0.83 0.84 0.88 0.89 0.90 0.88 0.90 0.93 0.94 0.93 0.92 0.95 0.96 0.94 0.94 1.04 1.12 1.11 1.15 1.16 1.07 1.03 1.03 1.01 0.98 1.00
0.29 0.29 0.27 0.24 0.20 0.18 0.19 0.20 0.21 0.20 0.19 0.17 0.19 0.20 0.21 0.22 0.23 0.21 0.20 0.17 0.15 0.19 0.17 0.22 0.23 0.28 0.29 0.34 0.35 0.37 0.39 0.40 0.43 0.49 0.50 0.52 0.54 0.55 0.55 0.55 0.55 0.54 0.55 0.55 0.55 0.55 0.54 0.52 0.51 0.50 0.52 0.54 0.59 0.67 0.72 0.75 0.77 0.79 0.80 0.84 0.87 0.89 0.90 0.91 0.91 0.95 0.92 0.92 0.92 0.88 0.88 0.93 0.94 0.94 0.95 0.94 0.92 0.98 1.04 1.02 1.01 1.02 1.02 1.04 1.02 1.01
0.29 0.25 0.26 0.25 0.24 0.24 0.24 0.22 0.23 0.22 0.19 0.19 0.18 0.19 0.21 0.22 0.22 0.20 0.18 0.17 0.20 0.16 0.15 0.23 0.28 0.26 0.28 0.30 0.34 0.37 0.36 0.39 0.41 0.43 0.46 0.47 0.46 0.47 0.49 0.51 0.53 0.54 0.56 0.57 0.58 0.57 0.55 0.54 0.53 0.51 0.50 0.49 0.51 0.55 0.61 0.66 0.70 0.74 0.78 0.80 0.84 0.86 0.89 0.92 0.90 0.89 0.90 0.90 0.86 0.87 0.88 0.91 0.94 0.95 0.94 0.93 0.97 1.03 1.02 0.98 0.97 0.98 1.00 1.00 0.99 0.97
0.26 0.23 0.26 0.25 0.25 0.26 0.26 0.25 0.24 0.22 0.21 0.21 0.21 0.21 0.20 0.22 0.21 0.20 0.21 0.22 0.22 0.18 0.17 0.26 0.27 0.25 0.28 0.30 0.32 0.36 0.38 0.37 0.41 0.44 0.45 0.46 0.48 0.49 0.49 0.49 0.49 0.50 0.52 0.53 0.55 0.56 0.55 0.54 0.53 0.52 0.51 0.50 0.50 0.49 0.48 0.50 0.54 0.60 0.64 0.69 0.74 0.79 0.82 0.85 0.84 0.83 0.82 0.82 0.83 0.85 0.87 0.87 0.87 0.89 0.90 0.92 0.95 0.95 0.95 0.94 0.94 0.95 0.93 0.92 0.91 0.91
0.25 0.23 0.24 0.24 0.23 0.24 0.25 0.24 0.23 0.20 0.18 0.17 0.18 0.21 0.22 0.22 0.22 0.23 0.24 0.26 0.24 0.23 0.24 0.26 0.26 0.27 0.31 0.32 0.33 0.36 0.42 0.44 0.43 0.45 0.45 0.45 0.45 0.46 0.46 0.47 0.49 0.50 0.51 0.50 0.51 0.52 0.53 0.55 0.56 0.55 0.55 0.54 0.53 0.51 0.51 0.50 0.49 0.48 0.51 0.56 0.59 0.64 0.69 0.74 0.75 0.76 0.77 0.79 0.81 0.81 0.83 0.83 0.85 0.86 0.87 0.87 0.86 0.86 0.86 0.84 0.82 0.80 0.81 0.83 0.85 0.85
0.22 0.21 0.23 0.22 0.19 0.19 0.21 0.23 0.21 0.19 0.17 0.16 0.19 0.19 0.19 0.21 0.22 0.24 0.24 0.25 0.26 0.26 0.27 0.26 0.24 0.25 0.33 0.36 0.35 0.38 0.39 0.42 0.42 0.41 0.41 0.43 0.44 0.46 0.46 0.46 0.46 0.47 0.49 0.51 0.52 0.52 0.54 0.54 0.55 0.56 0.56 0.56 0.56 0.55 0.54 0.53 0.52 0.50 0.49 0.49 0.51 0.51 0.54 0.55 0.58 0.59 0.61 0.61 0.65 0.68 0.71 0.71 0.69 0.66 0.62 0.59 0.59 0.57 0.58 0.60 0.65 0.68 0.70 0.72 0.74 0.74
0.24 0.22 0.23 0.21 0.17 0.17 0.21 0.20 0.20 0.20 0.19 0.19 0.19 0.19 0.19 0.19 0.17 0.20 0.19 0.22 0.20 0.20 0.22 0.22 0.21 0.22 0.30 0.36 0.37 0.37 0.37 0.37 0.37 0.38 0.39 0.40 0.42 0.43 0.45 0.47 0.48 0.50 0.53 0.55 0.56 0.57 0.56 0.55 0.54 0.54 0.54 0.54 0.55 0.57 0.56 0.56 0.55 0.53 0.51 0.50 0.47 0.46 0.47 0.48 0.48 0.49 0.51 0.49 0.48 0.48 0.48 0.49 0.50 0.50 0.50 0.50 0.51 0.51 0.53 0.55 0.56 0.59 0.64 0.68 0.69 0.71
0.25 0.23 0.20 0.19 0.15 0.15 0.19 0.20 0.19 0.19 0.18 0.17 0.19 0.22 0.24 0.24 0.24 0.24 0.25 0.26 0.26 0.25 0.21 0.19 0.21 0.28 0.32 0.36 0.34 0.35 0.36 0.38 0.39 0.39 0.39 0.40 0.41 0.42 0.42 0.44 0.47 0.49 0.53 0.56 0.58 0.58 0.58 0.57 0.57 0.56 0.55 0.56 0.56 0.56 0.57 0.59 0.57 0.55 0.54 0.52 0.50 0.50 0.47 0.45 0.43 0.44 0.45 0.46 0.45 0.45 0.45 0.46 0.49 0.49 0.48 0.47 0.47 0.50 0.51 0.50 0.51 0.51 0.54 0.56 0.59 0.62
0.28 0.26 0.23 0.25 0.17 0.18 0.20 0.20 0.19 0.16 0.12 0.14 0.28 0.31 0.30 0.25 0.25 0.23 0.25 0.27 0.29 0.29 0.27 0.29 0.29 0.32 0.34 0.35 0.34 0.35 0.35 0.37 0.39 0.42 0.44 0.42 0.40 0.41 0.43 0.46 0.49 0.50 0.51 0.55 0.58 0.58 0.60 0.61 0.60 0.60 0.61 0.59 0.58 0.57 0.58 0.59 0.57 0.56 0.56 0.55 0.53 0.50 0.48 0.46 0.45 0.45 0.44 0.45 0.43 0.43 0.43 0.43 0.43 0.43 0.43 0.45 0.45 0.44 0.43 0.42 0.42 0.43 0.45 0.46 0.48 0.48
0.25 0.25 0.24 0.25 0.20 0.18 0.20 0.19 0.16 0.12 0.13 0.27 0.32 0.33 0.31 0.29 0.28 0.26 0.27 0.29 0.29 0.31 0.31 0.30 0.31 0.31 0.33 0.35 0.37 0.37 0.38 0.39 0.40 0.40 0.41 0.42 0.42 0.41 0.42 0.45 0.48 0.50 0.52 0.54 0.57 0.60 0.61 0.61 0.62 0.61 0.63 0.62 0.62 0.61 0.59 0.57 0.58 0.57 0.56 0.54 0.53 0.53 0.51 0.50 0.48 0.46 0.46 0.45 0.45 0.46 0.45 0.45 0.44 0.44 0.45 0.45 0.44 0.43 0.41 0.40 0.39 0.39 0.40 0.40 0.41 0.41
0.24 0.23 0.23 0.21 0.20 0.21 0.18 0.17 0.11 0.12 0.21 0.27 0.28 0.30 0.34 0.30 0.29 0.25 0.24 0.27 0.29 0.29 0.29 0.27 0.29 0.31 0.32 0.34 0.36 0.38 0.37 0.37 0.37 0.39 0.40 0.41 0.43 0.42 0.42 0.43 0.46 0.49 0.51 0.55 0.58 0.62 0.63 0.65 0.62 0.63 0.61 0.63 0.62 0.61 0.60 0.57 0.58 0.57 0.55 0.56 0.54 0.54 0.54 0.51 0.49 0.48 0.48 0.48 0.49 0.46 0.45 0.44 0.44 0.44 0.45 0.44 0.43 0.41 0.40 0.37 0.34 0.33 0.33 0.33 0.34 0.36
0.21 0.21 0.19 0.16 0.19 0.13 0.14 0.14 0.14 0.22 0.21 0.24 0.23 0.25 0.27 0.25 0.26 0.23 0.19 0.23 0.28 0.29 0.28 0.27 0.28 0.29 0.30 0.32 0.34 0.37 0.38 0.37 0.34 0.35 0.39 0.41 0.42 0.43 0.43 0.43 0.46 0.48 0.49 0.52 0.56 0.59 0.62 0.64 0.65 0.65 0.65 0.62 0.60 0.58 0.58 0.58 0.57 0.55 0.55 0.54 0.54 0.54 0.53 0.52 0.50 0.49 0.50 0.49 0.49 0.48 0.46 0.45 0.44 0.44 0.45 0.45 0.43 0.41 0.38 0.36 0.36 0.35 0.35 0.31 0.30 0.30
0.22 0.17 0.20 0.15 0.17 0.17 0.14 0.13 0.13 0.14 0.11 0.18 0.25 0.29 0.32 0.32 0.31 0.32 0.26 0.24 0.30 0.31 0.31 0.29 0.29 0.30 0.30 0.31 0.32 0.34 0.35 0.32 0.29 0.31 0.36 0.39 0.40 0.41 0.42 0.43 0.44 0.45 0.47 0.49 0.51 0.51 0.51 0.54 0.56 0.61 0.66 0.64 0.63 0.63 0.64 0.62 0.58 0.56 0.55 0.55 0.56 0.55 0.55 0.54 0.53 0.53 0.52 0.51 0.51 0.50 0.50 0.49 0.48 0.47 0.48 0.47 0.44 0.43 0.43 0.42 0.42 0.40 0.40 0.36 0.33 0.31
0.23 0.22 0.21 0.17 0.17 0.17 0.16 0.13 0.13 0.12 0.15 0.25 0.28 0.31 0.33 0.34 0.32 0.35 0.26 0.22 0.30 0.32 0.32 0.31 0.30 0.30 0.31 0.31 0.32 0.33 0.31 0.27 0.27 0.31 0.36 0.38 0.39 0.40 0.39 0.40 0.40 0.40 0.41 0.42 0.43 0.43 0.44 0.45 0.48 0.50 0.53 0.56 0.54 0.58 0.61 0.60 0.61 0.59 0.57 0.57 0.57 0.57 0.56 0.56 0.57 0.54 0.52 0.52 0.52 0.53 0.53 0.52 0.51 0.50 0.49 0.46 0.45 0.45 0.45 0.45 0.45 0.46 0.45 0.44 0.42 0.40
0.22 0.22 0.21 0.18 0.18 0.19 0.18 0.16 0.16 0.21 0.21 0.28 0.31 0.34 0.36 0.36 0.34 0.29 0.18 0.19 0.31 0.34 0.34 0.33 0.32 0.32 0.32 0.34 0.34 0.33 0.30 0.27 0.28 0.32 0.37 0.38 0.39 0.40 0.40 0.41 0.41 0.40 0.41 0.42 0.42 0.43 0.43 0.43 0.44 0.44 0.45 0.45 0.45 0.46 0.48 0.49 0.51 0.53 0.54 0.55 0.55 0.53 0.53 0.54 0.54 0.54 0.54 0.53 0.52 0.53 0.53 0.54 0.53 0.52 0.50 0.48 0.47 0.49 0.48 0.48 0.46 0.46 0.47 0.48 0.48 0.46
0.23 0.23 0.23 0.20 0.21 0.22 0.21 0.21 0.24 0.27 0.33 0.35 0.35 0.37 0.39 0.40 0.35 0.24 0.19 0.26 0.34 0.34 0.34 0.34 0.33 0.33 0.34 0.33 0.34 0.31 0.32 0.33 0.34 0.36 0.37 0.38 0.38 0.38 0.40 0.41 0.42 0.43 0.42 0.41 0.40 0.41 0.42 0.42 0.42 0.42 0.42 0.43 0.45 0.47 0.48 0.47 0.46 0.46 0.47 0.49 0.50 0.50 0.51 0.52 0.52 0.51 0.49 0.51 0.52 0.52 0.53 0.54 0.53 0.52 0.51 0.50 0.48 0.47 0.45 0.46 0.47 0.49 0.50 0.50 0.50 0.48
0.26 0.26 0.28 0.27 0.24 0.23 0.24 0.22 0.24 0.28 0.34 0.38 0.38 0.38 0.38 0.33 0.23 0.22 0.30 0.36 0.34 0.33 0.35 0.35 0.33 0.34 0.34 0.33 0.32 0.32 0.33 0.35 0.35 0.36 0.36 0.37 0.37 0.38 0.38 0.39 0.39 0.40 0.41 0.43 0.43 0.42 0.41 0.41 0.42 0.42 0.42 0.42 0.42 0.42 0.43 0.45 0.44 0.44 0.46 0.46 0.46 0.47 0.49 0.50 0.50 0.50 0.51 0.50 0.48 0.48 0.50 0.51 0.52 0.53 0.50 0.48 0.47 0.46 0.46 0.48 0.51 0.52 0.52 0.51 0.49 0.46
0.25 0.23 0.23 0.23 0.27 0.27 0.26 0.22 0.21 0.18 0.29 0.35 0.34 0.32 0.33 0.25 0.27 0.33 0.35 0.35 0.36 0.35 0.34 0.34 0.34 0.34 0.35 0.33 0.34 0.34 0.33 0.34 0.34 0.34 0.35 0.35 0.35 0.35 0.36 0.37 0.37 0.37 0.37 0.38 0.38 0.41 0.41 0.41 0.41 0.43 0.44 0.45 0.44 0.43 0.42 0.41 0.40 0.40 0.41 0.41 0.42 0.44 0.45 0.46 0.48 0.49 0.49 0.49 0.50 0.50 0.49 0.49 0.49 0.49 0.51 0.51 0.51 0.49 0.48 0.50 0.52 0.53 0.53 0.51 0.49 0.47
0.28 0.22 0.23 0.24 0.27 0.21 0.22 0.20 0.21 0.27 0.30 0.35 0.31 0.25 0.31 0.32 0.35 0.35 0.33 0.31 0.34 0.34 0.33 0.33 0.33 0.34 0.34 0.33 0.33 0.33 0.33 0.33 0.33 0.33 0.33 0.33 0.33 0.34 0.34 0.34 0.33 0.33 0.32 0.33 0.35 0.36 0.37 0.37 0.39 0.40 0.40 0.42 0.44 0.44 0.43 0.41 0.40 0.40 0.39 0.38 0.42 0.43 0.44 0.44 0.44 0.45 0.44 0.43 0.43 0.45 0.49 0.52 0.53 0.53 0.53 0.52 0.51 0.50 0.49 0.49 0.50 0.51 0.51 0.50 0.47 0.44
0.26 0.23 0.25 0.21 0.26 0.24 0.22 0.25 0.30 0.33 0.32 0.34 0.33 0.32 0.33 0.34 0.34 0.34 0.32 0.31 0.30 0.31 0.34 0.32 0.32 0.33 0.34 0.33 0.33 0.32 0.30 0.31 0.31 0.31 0.31 0.30 0.31 0.31 0.30 0.30 0.31 0.30 0.29 0.29 0.29 0.31 0.33 0.32 0.31 0.32 0.34 0.38 0.40 0.42 0.43 0.43 0.41 0.40 0.38 0.40 0.42 0.42 0.42 0.43 0.44 0.44 0.44 0.45 0.45 0.45 0.46 0.48 0.50 0.51 0.52 0.52 0.52 0.50 0.49 0.47 0.48 0.46 0.48 0.48 0.47 0.46
0.26 0.26 0.27 0.24 0.23 0.28 0.30 0.30 0.31 0.31 0.32 0.32 0.34 0.34 0.32 0.32 0.33 0.32 0.31 0.30 0.31 0.32 0.32 0.30 0.31 0.31 0.32 0.32 0.30 0.30 0.30 0.30 0.29 0.29 0.29 0.29 0.29 0.29 0.29 0.29 0.29 0.29 0.29 0.29 0.29 0.30 0.30 0.30 0.29 0.29 0.29 0.30 0.34 0.38 0.40 0.42 0.42 0.39 0.39 0.42 0.42 0.43 0.43 0.43 0.42 0.42 0.42 0.43 0.43 0.44 0.45 0.45 0.47 0.49 0.50 0.50 0.50 0.48 0.47 0.48 0.48 0.47 0.49 0.50 0.49 0.48
0.23 0.24 0.23 0.20 0.24 0.21 0.19 0.27 0.27 0.27 0.30 0.30 0.30 0.33 0.34 0.33 0.32 0.33 0.32 0.31 0.31 0.31 0.31 0.31 0.31 0.30 0.30 0.30 0.28 0.27 0.26 0.27 0.27 0.27 0.27 0.27 0.26 0.26 0.27 0.27 0.28 0.29 0.29 0.29 0.30 0.31 0.31 0.31 0.30 0.29 0.29 0.28 0.30 0.32 0.36 0.38 0.40 0.42 0.42 0.42 0.42 0.43 0.43 0.43 0.43 0.42 0.42 0.42 0.43 0.43 0.44 0.44 0.44 0.44 0.44 0.45 0.46 0.48 0.49 0.49 0.49 0.48 0.47 0.49 0.51 0.50
0.20 0.25 0.20 0.21 0.21 0.19 0.21 0.26 0.28 0.29 0.30 0.30 0.30 0.28 0.28 0.30 0.31 0.32 0.32 0.32 0.31 0.32 0.31 0.31 0.31 0.30 0.31 0.29 0.29 0.28 0.27 0.29 0.28 0.27 0.27 0.27 0.27 0.27 0.27 0.27 0.28 0.29 0.30 0.31 0.32 0.32 0.31 0.31 0.30 0.30 0.31 0.31 0.32 0.33 0.33 0.34 0.36 0.39 0.42 0.43 0.44 0.43 0.42 0.42 0.41 0.41 0.41 0.41 0.42 0.43 0.43 0.43 0.44 0.43 0.44 0.45 0.46 0.46 0.46 0.47 0.47 0.45 0.43 0.44 0.48 0.49
0.23 0.24 0.18 0.21 0.19 0.22 0.25 0.26 0.26 0.26 0.27 0.27 0.28 0.29 0.30 0.29 0.29 0.29 0.30 0.30 0.30 0.29 0.29 0.31 0.32 0.31 0.31 0.30 0.30 0.29 0.27 0.28 0.29 0.29 0.29 0.29 0.29 0.29 0.29 0.29 0.30 0.30 0.30 0.30 0.31 0.32 0.32 0.32 0.31 0.31 0.31 0.31 0.33 0.33 0.33 0.34 0.36 0.37 0.38 0.39 0.41 0.42 0.40 0.39 0.39 0.40 0.39 0.40 0.41 0.41 0.43 0.43 0.44 0.44 0.43 0.43 0.43 0.44 0.45 0.46 0.47 0.46 0.48 0.54 0.57 0.57
0.22 0.19 0.23 0.21 0.18 0.18 0.19 0.22 0.24 0.18 0.17 0.21 0.24 0.26 0.27 0.28 0.28 0.27 0.27 0.27 0.27 0.27 0.28 0.28 0.29 0.32 0.32 0.32 0.30 0.29 0.27 0.27 0.29 0.29 0.28 0.29 0.30 0.30 0.31 0.31 0.31 0.31 0.31 0.32 0.33 0.32 0.32 0.33 0.33 0.32 0.31 0.32 0.33 0.33 0.32 0.33 0.35 0.37 0.39 0.40 0.40 0.40 0.38 0.38 0.38 0.37 0.37 0.37 0.38 0.39 0.40 0.41 0.42 0.44 0.44 0.44 0.42 0.41 0.41 0.43 0.46 0.48 0.48 0.51 0.57 0.59
0.20 0.22 0.21 0.18 0.17 0.16 0.23 0.25 0.26 0.24 0.23 0.24 0.25 0.27 0.28 0.29 0.27 0.26 0.25 0.26 0.27 0.29 0.29 0.28 0.26 0.27 0.28 0.29 0.31 0.29 0.29 0.28 0.28 0.29 0.29 0.29 0.29 0.31 0.32 0.32 0.32 0.32 0.32 0.32 0.32 0.31 0.31 0.32 0.33 0.33 0.32 0.32 0.33 0.33 0.33 0.32 0.33 0.34 0.37 0.38 0.40 0.40 0.39 0.39 0.38 0.37 0.37 0.37 0.36 0.37 0.38 0.38 0.39 0.42 0.43 0.44 0.43 0.41 0.38 0.40 0.44 0.48 0.52 0.55 0.57 0.58
Wind_Speed
7 8 9 10 11 12 13 13 12 11 11 11 9 10 10 9 9 10 10 9 11 10 10 10 11 9 8 11 12 12 12 11 10 10 10 10 11 11 11 11 10 10 10 10 12 13 13 13 12 12 12 12 12 12 13 13 12 12 11 10 9 8 7 7 6 6 6 5 4 4 4 5 5 6 6 6 6 6 6 7 8 9 9 9 10 10
7 8 10 11 12 11 12 12 11 10 10 10 9 9 9 8 8 8 6 6 9 10 9 9 9 9 10 11 12 13 13 13 12 11 11 11 11 12 11 11 11 10 10 10 11 12 13 13 12 12 13 13 13 13 13 13 12 12 11 10 10 9 8 7 7 6 6 5 5 5 5 6 6 6 6 6 6 6 5 5 6 7 8 9 10 10
7 9 11 12 11 9 9 9 9 10 10 9 9 9 8 8 8 6 5 6 8 9 9 9 9 9 10 10 11 13 14 15 14 14 14 13 11 11 11 11 11 10 10 11 11 12 13 12 12 12 13 13 13 14 13 13 13 12 12 11 10 9 8 7 7 6 6 5 5 5 5 6 6 7 7 7 6 5 5 5 6 6 7 8 8 9
8 9 10 11 9 9 9 10 9 9 9 10 10 9 9 9 7 7 6 5 8 9 8 9 8 9 9 8 9 11 13 14 15 15 14 14 13 13 12 11 10 11 12 12 12 12 12 12 12 12 13 14 14 14 14 13 13 13 12 12 11 10 9 8 7 7 6 5 5 5 5 6 7 7 7 7 6 6 6 5 6 6 6 7 7 8
11 10 9 8 8 10 10 10 10 9 9 11 11 10 10 9 8 9 8 6 7 8 8 7 7 9 9 7 8 10 10 13 15 15 14 14 14 13 12 12 11 11 12 13 13 13 12 12 12 12 13 14 14 14 14 14 14 13 13 13 12 11 10 9 8 8 7 6 5 5 5 6 6 7 7 7 6 6 5 5 5 5 6 6 6 7
12 12 11 10 10 11 11 11 10 9 9 10 12 12 11 10 10 11 10 7 7 8 9 7 8 11 11 10 11 10 11 13 15 15 15 15 14 13 13 12 12 11 12 13 14 14 13 12 11 12 12 13 13 14 14 14 14 14 14 13 12 12 11 10 10 9 9 8 7 6 6 6 6 6 6 6 5 5 5 5 5 5 5 5 5 6
12 12 12 11 11 11 11 11 11 10 8 9 11 13 12 10 10 10 10 9 8 9 9 7 8 11 11 11 12 11 12 15 16 16 15 15 15 15 14 13 12 12 12 12 13 13 12 11 12 12 12 12 13 14 14 14 14 14 14 14 13 13 12 12 11 11 11 9 8 8 7 7 6 6 6 5 5 5 5 5 5 5 5 5 5 5
11 10 11 11 10 10 10 10 11 9 8 10 11 12 12 10 10 10 8 8 10 11 9 8 8 9 11 11 12 10 11 14 17 16 15 15 16 16 15 14 13 12 12 12 12 12 12 12 12 12 13 13 13 13 14 14 14 15 15 15 14 14 13 12 12 12 12 11 9 9 8 7 7 6 5 5 5 5 5 5 5 5 5 5 6 5
10 10 10 11 10 10 10 11 12 10 10 12 11 11 13 12 11 10 9 9 10 10 10 11 9 9 11 11 11 10 10 14 16 16 15 16 17 16 15 14 13 12 13 12 12 13 13 13 13 13 13 13 13 14 14 14 15 15 16 15 15 15 14 13 13 13 13 12 11 10 9 8 8 6 6 6 5 5 4 4 4 4 4 4 5 5
10 11 12 10 10 11 11 11 11 10 12 12 11 11 12 11 11 10 10 10 9 9 12 13 10 9 11 12 10 10 11 13 15 15 15 14 15 15 15 14 13 13 13 13 13 13 13 14 14 14 14 13 13 13 14 14 15 15 16 16 16 16 16 15 14 14 14 14 12 11 10 9 8 7 6 6 6 5 4 4 4 4 4 4 4 4
11 11 12 10 10 11 11 11 10 11 12 11 9 9 10 11 11 11 11 10 9 11 13 13 11 9 10 12 11 11 12 13 14 14 13 13 14 15 14 14 14 13 14 14 13 12 13 13 14 14 14 13 13 13 14 14 15 16 17 17 17 17 18 17 16 15 16 15 14 13 12 10 9 8 7 7 6 5 5 4 4 4 4 4 3 3
11 10 11 12 11 10 9 10 10 10 9 9 9 9 9 10 10 11 11 11 11 13 14 14 12 10 11 12 12 13 13 13 14 14 13 13 13 13 13 13 13 13 14 14 13 12 12 13 13 14 14 14 14 14 15 15 15 16 17 18 18 19 19 18 17 17 17 16 16 16 14 12 11 9 8 7 7 6 5 4 4 4 4 4 3 3
11 11 12 12 12 10 8 9 10 10 8 8 9 9 9 9 9 10 11 11 12 13 14 13 11 10 12 13 13 13 12 13 14 13 13 13 12 12 12 12 12 12 13 13 13 13 13 14 14 14 14 15 16 16 16 16 16 17 17 18 19 19 20 20 19 19 18 16 16 16 15 13 12 11 9 8 7 6 5 5 4 4 4 4 4 3
11 11 11 11 11 11 9 9 10 11 10 10 11 10 9 9 8 10 11 10 11 12 13 12 10 11 12 12 12 12 11 11 12 11 11 11 11 10 10 10 11 11 12 12 13 13 14 14 15 15 15 16 16 17 17 17 17 17 18 19 20 20 21 20 19 19 19 17 16 16 15 14 12 12 10 9 8 7 6 5 4 4 4 4 3 3
10 10 11 10 11 11 10 10 10 10 11 12 12 10 10 10 10 11 12 11 11 12 12 11 10 11 11 10 11 10 8 9 10 9 9 8 9 9 9 9 9 10 10 11 12 12 13 13 14 15 16 16 16 17 17 18 18 18 18 19 19 18 18 18 18 20 20 19 17 17 16 15 13 13 12 10 9 7 6 6 5 5 4 4 3 3
11 11 12 11 11 10 10 9 8 8 9 11 10 9 11 12 11 10 11 12 11 10 11 11 11 11 10 10 10 8 7 8 9 9 8 8 8 8 7 7 7 8 9 9 10 11 12 12 13 14 16 16 16 16 17 17 18 18 18 18 17 15 15 16 18 20 21 20 19 18 17 16 14 14 13 12 11 9 8 7 6 6 5 5 4 3
11 12 12 10 9 9 10 9 8 7 9 9 8 8 11 11 10 9 9 10 8 8 11 11 11 11 10 10 10 8 9 10 10 11 11 10 9 8 8 7 7 7 8 8 9 10 11 11 11 12 14 14 15 16 16 17 17 18 18 18 17 16 16 17 18 20 21 21 19 18 18 17 15 15 14 13 12 11 10 9 8 7 6 6 5 4
10 10 10 8 7 9 9 8 8 8 8 7 8 9 9 8 8 8 8 8 6 8 10 10 10 10 10 10 11 10 10 11 11 12 12 12 11 9 9 8 8 9 9 9 10 10 11 11 10 10 11 12 12 13 14 15 16 16 16 16 16 16 17 17 17 19 21 21 19 19 19 18 17 16 15 14 14 13 12 11 10 9 8 7 7 6
11 10 10 9 9 9 8 6 6 8 8 8 9 9 8 8 9 8 7 7 7 8 9 8 8 9 10 11 12 11 12 12 11 11 12 12 12 11 9 9 9 9 10 10 10 10 10 10 9 9 9 9 10 10 11 12 13 13 14 14 14 15 16 16 16 16 19 20 19 19 19 19 19 18 17 16 15 14 13 12 12 11 10 9 8 7
11 11 11 10 10 8 7 6 6 6 7 8 8 9 9 10 10 9 8 8 7 8 8 7 7 8 10 10 11 12 14 14 12 12 12 12 12 11 10 10 10 9 9 10 10 10 10 9 9 8 8 8 8 9 10 10 11 12 13 13 13 14 14 15 15 15 16 18 18 17 18 19 19 18 18 18 16 15 15 14 13 13 12 12 11 9
11 12 13 12 10 8 7 7 6 7 7 7 8 10 10 10 10 9 8 8 7 7 8 7 7 9 10 9 9 11 13 13 13 12 12 12 12 11 10 10 10 9 9 9 10 10 10 9 9 8 8 8 8 8 9 10 10 11 12 12 13 13 13 14 15 15 15 17 17 17 18 19 19 18 19 19 18 17 15 15 15 14 13 13 12 12
12 12 13 13 12 10 10 9 8 9 9 8 8 10 10 10 10 9 9 9 8 8 8 8 8 10 10 9 10 11 11 11 12 12 12 12 12 11 11 10 10 9 9 9 10 10 10 10 9 9 8 8 8 9 9 10 10 11 11 11 12 12 13 14 14 14 14 16 17 18 19 19 19 19 19 20 20 19 17 16 16 15 14 14 14 13
13 12 12 13 14 14 13 11 8 8 8 8 7 7 8 10 10 10 10 11 9 8 9 8 8 10 11 10 11 12 11 11 11 11 11 11 12 12 11 10 10 10 11 11 11 11 11 11 10 10 9 9 9 10 10 11 11 11 11 11 11 11 12 12 13 13 14 15 16 17 18 19 19 19 19 20 21 20 19 18 18 17 16 15 15 14
13 12 11 13 15 15 14 11 9 9 8 7 7 7 7 9 10 11 12 12 10 10 10 8 8 10 11 11 12 12 10 9 10 11 10 11 11 12 12 12 12 12 13 13 12 12 12 11 11 11 11 10 10 11 11 11 12 12 12 12 12 11 12 12 12 12 13 14 15 16 17 18 18 18 17 18 20 20 20 19 18 18 17 17 17 16
13 13 12 10 11 13 13 11 11 11 10 9 10 9 8 8 9 10 11 10 9 11 11 9 10 11 11 11 10 10 9 9 10 11 11 10 11 12 13 13 12 13 13 14 13 13 13 12 13 13 12 12 11 11 12 12 12 13 13 13 13 12 12 12 12 12 13 14 15 16 16 16 18 18 17 16 17 18 19 19 18 17 17 17 17 18
13 13 12 12 11 12 13 13 12 12 12 12 12 11 10 9 9 10 11 10 10 11 10 10 12 13 12 11 11 10 10 10 11 11 11 11 12 13 13 13 14 14 14 14 14 14 14 14 14 14 13 13 13 13 13 13 13 13 13 14 14 14 13 13 13 13 14 14 15 16 16 16 17 18 19 19 18 18 18 18 18 17 17 17 18 18
13 13 13 13 13 14 14 14 14 12 12 14 14 13 12 11 11 11 11 11 11 12 11 12 13 12 12 11 11 12 12 12 12 12 13 13 14 15 15 15 15 15 15 16 16 15 15 15 15 15 14 14 14 14 14 14 13 13 13 13 14 14 14 14 14 14 15 15 15 15 16 16 17 19 20 20 20 20 20 19 19 19 19 19 20 20
13 14 14 13 14 15 15 15 15 13 12 13 14 13 13 12 12 11 11 13 13 12 13 14 13 12 13 13 13 15 15 14 14 14 15 16 16 16 17 17 17 17 17 17 17 17 17 16 16 16 15 15 15 15 14 14 15 15 14 14 13 14 14 14 14 15 15 16 16 16 16 17 18 19 20 20 21 22 22 22 22 22 22 22 22 22
14 15 15 14 14 15 15 15 15 14 13 13 13 13 14 13 12 12 13 14 13 13 14 14 12 12 15 15 15 16 16 15 15 16 16 17 17 18 18 18 18 18 18 18 19 19 19 19 18 18 17 17 17 17 16 16 16 16 16 15 15 15 15 15 15 16 16 16 17 17 17 17 18 19 20 20 21 22 22 22 22 22 23 23 23 23
14 15 15 14 14 15 15 15 14 14 15 15 14 15 15 14 13 13 14 14 13 13 15 14 12 13 15 16 17 16 15 14 14 15 15 16 17 19 19 19 19 19 20 20 20 20 20 20 20 20 19 19 19 19 19 19 19 18 17 16 16 16 16 17 17 17 18 18 18 18 18 18 18 18 19 19 20 21 21 21 21 21 21 22 22 22
15 16 16 15 14 16 16 15 14 15 15 15 15 16 16 15 15 15 16 15 14 14 15 14 13 15 17 18 18 17 15 14 14 15 16 16 17 18 20 21 22 22 22 22 22 22 21 21 21 21 21 21 21 20 20 19 19 19 18 18 18 18 18 18 18 18 19 19 19 19 19 19 19 19 19 19 20 20 20 21 21 21 21 21 22 22
16 16 17 15 15 17 17 15 15 16 15 15 15 17 17 16 16 16 17 17 16 17 17 16 16 18 19 19 18 16 15 15 16 17 17 18 18 18 19 21 23 24 25 24 23 22 22 22 23 23 23 22 22 21 21 20 20 20 20 20 20 20 19 20 20 20 20 20 20 20 20 20 20 20 20 20 20 20 21 21 21 22 22 22 22 23
17 17 17 17 17 19 19 17 17 16 16 17 18 18 18 16 15 16 16 17 17 18 18 18 19 20 21 20 18 18 17 16 17 18 18 19 19 19 20 21 22 24 25 25 25 24 24 23 23 24 24 23 23 23 23 23 22 22 22 22 22 22 21 21 21 21 21 21 21 21 22 21 21 21 22 21 21 21 21 21 22 22 23 23 23 23
17 17 18 18 17 19 20 18 17 17 18 19 20 20 18 16 14 15 16 17 17 17 18 19 19 20 21 20 19 19 19 18 18 18 18 19 19 20 21 21 22 22 23 23 24 24 24 24 24 24 24 22 22 24 24 24 24 24 23 23 23 23 23 23 22 23 23 23 22 22 23 22 22 22 22 22 22 22 22 22 22 23 23 23 24 24
18 17 18 19 18 19 19 17 16 19 20 20 19 18 17 15 14 14 15 17 17 17 17 18 19 20 20 20 20 20 20 19 18 18 18 19 20 21 21 22 22 22 22 22 22 23 23 24 24 24 24 23 22 22 22 23 24 24 24 23 23 23 23 23 23 23 24 24 24 23 23 23 23 23 23 23 23 23 23 24 24 24 25 25 25 25
20 20 20 20 19 19 19 18 18 20 20 19 19 19 17 17 17 16 16 18 19 19 19 20 21 21 21 20 20 21 21 20 19 19 20 20 21 21 21 22 23 22 22 22 22 22 23 23 23 23 23 24 23 23 22 23 24 25 25 24 24 24 24 24 24 25 24 25 25 25 25 25 25 25 25 24 24 24 24 25 25 25 25 25 26 26
21 21 21 21 21 20 19 20 20 20 19 19 20 20 19 19 20 19 18 19 20 21 21 21 22 22 22 21 21 22 23 21 20 22 22 22 22 22 22 22 23 23 23 23 22 22 23 25 25 25 25 26 26 26 26 26 26 26 26 26 26 26 25 25 26 26 26 26 26 26 26 26 26 26 26 25 25 25 25 25 25 25 25 25 26 26
21 22 22 22 21 20 19 20 19 19 21 21 21 21 21 21 21 20 18 19 21 21 21 21 21 22 22 21 21 22 23 22 22 24 24 23 23 23 22 22 23 23 24 24 24 24 25 25 26 27 28 28 27 28 28 28 28 28 28 28 27 27 26 26 26 27 27 26 26 27 27 27 27 26 27 26 27 27 27 27 27 27 27 26 27 27
20 21 21 21 21 20 19 19 19 19 21 22 22 22 22 21 20 18 17 19 21 22 21 21 21 22 23 22 21 21 21 22 24 25 25 24 24 23 23 23 23 23 24 24 25 25 26 26 27 27 28 29 29 29 29 29 29 29 30 30 29 29 29 29 29 28 28 28 28 28 28 28 27 28 28 29 29 29 28 28 29 29 28 28 28 28
17 19 19 19 20 20 20 19 19 18 19 21 22 22 22 21 19 17 18 20 21 22 22 21 20 21 22 21 21 21 21 23 25 26 25 25 24 23 23 23 23 24 24 24 25 26 26 27 27 28 29 30 31 32 32 32 32 31 32 32 32 32 32 32 32 31 31 31 31 31 30 30 30 30 30 31 31 31 30 31 31 30 30 29 29 29
15 16 17 17 18 18 18 18 18 18 19 21 22 23 22 20 18 18 20 22 21 21 21 20 20 21 21 21 21 22 23 24 25 26 26 25 24 24 24 24 25 25 25 26 27 27 28 28 28 29 30 31 32 32 33 34 34 34 34 34 34 35 34 34 34 34 34 34 34 34 34 33 33 33 32 32 32 32 32 32 32 32 31 31 30 30
15 15 15 16 16 17 17 16 17 17 19 21 21 21 20 19 18 19 21 21 20 20 20 20 21 22 22 23 23 24 25 26 26 26 26 26 26 27 27 27 28 28 29 30 30 30 30 30 30 30 31 32 32 33 34 34 35 35 35 35 35 36 36 36 36 36 36 36 36 36 36 36 35 34 34 33 33 33 33 33 32 32 32 31 31 31
15 15 14 15 16 16 15 15 16 17 19 20 20 19 18 18 19 20 19 19 20 21 21 22 23 23 24 24 25 26 27 27 28 28 29 29 29 30 31 31 31 32 32 33 33 33 33 33 33 33 33 33 34 34 35 36 37 36 36 36 37 37 37 37 37 37 37 37 36 36 36 36 35 35 34 33 33 33 33 33 32 32 32 31 31 31
15 15 15 15 16 15 15 15 16 17 18 17 17 18 18 18 19 19 19 20 22 22 23 23 24 25 26 26 27 29 29 30 31 31 32 32 33 33 34 34 34 35 35 36 36 37 36 36 37 37 37 37 36 36 36 36 37 38 38 38 38 37 37 38 37 37 37 37 37 36 36 36 36 35 35 34 34 34 34 34 33 33 33 32 31 30
15 15 15 15 15 14 15 15 15 15 15 14 15 16 17 18 19 19 20 21 23 24 25 25 26 28 28 28 30 31 31 33 33 34 34 35 36 36 37 37 38 38 39 39 39 39 39 39 39 39 39 39 39 38 37 37 37 37 38 38 38 38 37 37 37 37 37 36 36 36 36 36 36 35 35 35 35 35 35 35 34 34 33 32 32 31
15 15 14 15 15 14 14 15 15 15 15 16 16 17 18 19 21 22 22 24 26 27 27 28 29 30 31 31 32 32 33 34 35 36 36 37 37 38 38 39 39 39 39 39 39 39 39 39 40 40 40 40 40 40 39 39 39 39 38 38 37 37 37 37 37 37 37 36 36 36 35 35 35 36 36 36 35 35 35 34 34 34 33 33 32 31
14 13 13 14 15 15 15 16 18 17 17 17 18 19 20 21 23 23 24 25 26 27 28 28 29 30 31 31 32 33 34 35 35 36 37 37 37 38 38 38 38 38 38 38 38 38 38 38 38 39 39 40 40 40 40 40 40 40 40 39 39 38 38 38 38 38 38 37 37 36 36 36 36 36 36 35 35 35 34 34 34 34 34 33 32 31
13 12 12 13 14 14 16 17 18 18 17 17 18 20 21 21 22 23 24 25 26 26 27 28 28 29 30 31 32 33 33 34 34 35 35 35 35 36 36 37 37 37 36 36 36 36 36 37 37 37 38 38 39 39 40 40 41 41 40 40 40 40 39 39 39 38 38 38 38 37 36 36 36 36 35 35 34 34 34 34 34 33 33 32 31 30
12 12 13 13 13 13 15 16 16 17 17 17 18 19 20 21 22 23 23 24 25 25 26 27 27 28 29 30 31 31 32 32 33 33 34 34 34 34 35 35 35 35 35 35 35 36 36 36 37 37 37 37 38 38 39 39 39 40 40 39 39 40 40 40 40 39 39 39 38 38 37 37 36 36 35 35 34 34 34 33 33 32 32 31 30 29
11 12 12 12 12 14 16 16 16 16 18 20 20 19 20 20 21 21 22 23 23 24 25 27 27 28 28 29 29 30 31 31 32 32 33 33 33 34 34 34 34 35 35 35 36 36 37 37 37 37 37 37 37 37 38 38 38 38 38 39 39 39 39 39 39 40 40 39 39 39 38 37 37 36 35 35 34 33 32 32 31 30 30 29 29 28
10 11 12 12 13 14 16 16 16 16 18 20 20 19 20 20 20 21 22 22 23 24 25 26 27 27 27 28 28 29 30 31 32 33 33 33 34 34 35 35 35 35 35 35 35 36 36 36 36 36 36 37 37 37 37 38 38 38 38 38 39 39 39 39 39 39 39 38 38 38 38 37 37 36 35 34 34 33 32 30 29 28 28 27 27 27
Wind_Direction
209 216 221 212 213 216 217 216 222 234 234 228 230 235 241 257 276 277 261 227 197 200 214 206 199 213 228 218 213 218 219 217 216 221 221 218 218 217 216 217 217 220 224 221 215 213 212 210 210 212 211 207 203 200 202 206 209 210 214 218 223 226 228 232 234 240 249 256 270 283 296 310 321 324 318 310 298 287 280 271 263 256 252 249 245 242
211 215 218 212 211 214 219 221 224 236 237 228 228 240 248 257 274 273 246 220 202 197 210 206 193 210 229 223 215 215 221 224 221 222 222 216 218 218 216 214 215 223 227 222 218 218 216 214 215 217 215 212 207 206 210 214 215 218 220 222 223 225 228 232 235 241 248 257 270 282 295 308 320 324 321 316 304 293 284 275 266 259 255 252 249 246
218 217 219 217 213 216 229 230 227 237 242 239 236 238 248 256 264 254 222 216 208 199 214 215 201 217 234 231 221 215 219 224 221 218 217 214 216 221 220 218 220 226 225 222 224 223 219 218 220 220 217 215 213 214 218 220 220 222 222 223 223 225 229 231 234 242 250 257 269 283 296 308 320 323 321 317 309 298 286 278 271 264 260 256 252 249
213 217 222 223 217 216 232 236 233 242 247 244 238 231 239 247 248 235 226 225 214 208 219 222 216 227 238 238 228 221 219 222 222 218 217 217 219 222 224 223 224 225 224 224 224 222 220 221 223 220 219 219 218 219 221 221 222 223 223 223 224 228 231 232 234 242 249 252 262 278 292 306 319 323 319 316 313 305 293 281 273 268 263 259 255 252
222 231 235 233 224 219 228 234 230 236 248 248 238 226 229 234 231 226 228 233 231 233 237 233 236 237 235 238 243 241 230 223 224 224 225 227 227 227 228 226 225 224 223 221 219 219 221 222 223 220 220 223 222 221 221 222 223 223 223 224 226 229 231 234 237 240 245 245 249 264 280 298 313 320 318 316 315 312 302 287 276 270 263 258 257 255
236 245 245 241 232 222 223 230 229 229 242 253 240 225 221 225 230 233 234 234 239 249 248 235 238 244 241 240 249 253 239 229 229 231 231 232 233 233 232 231 230 227 221 217 214 215 219 221 222 220 219 221 223 222 222 223 223 222 223 225 227 229 232 238 242 242 244 242 243 252 267 283 298 311 315 314 316 315 306 293 281 272 264 259 258 258
242 248 240 233 227 218 218 228 234 229 231 247 239 220 216 222 226 231 234 233 234 242 248 235 227 241 248 246 249 248 236 233 236 237 235 233 234 233 232 234 235 229 221 216 215 215 218 221 222 221 219 219 221 222 223 225 225 224 225 228 229 232 236 241 244 243 241 240 244 252 262 274 285 299 307 310 314 313 309 300 288 276 267 261 260 258
245 253 237 225 219 213 218 230 236 231 229 243 239 217 212 218 219 220 223 229 235 241 253 251 232 239 248 244 243 239 232 237 240 242 242 237 233 231 231 234 233 225 219 219 220 219 219 221 222 222 221 220 220 221 225 229 230 228 228 231 233 236 239 241 242 242 239 239 243 249 257 267 276 286 297 302 309 314 314 309 298 285 273 265 261 257
244 247 231 219 219 221 228 236 237 234 237 240 233 218 215 216 217 220 223 233 243 246 252 255 245 244 249 245 242 236 231 238 241 240 240 234 229 228 230 233 230 224 219 220 222 221 221 222 222 222 222 221 221 222 226 231 233 232 231 233 236 238 241 241 242 242 240 240 244 248 253 260 267 276 288 295 305 313 313 311 305 297 286 276 267 257
245 239 228 218 223 230 237 245 241 232 235 236 228 227 228 225 224 226 229 238 247 246 244 248 248 246 250 251 249 245 239 239 238 238 237 230 224 225 228 230 230 225 220 222 224 223 224 223 221 222 223 224 226 226 227 230 233 234 234 235 237 239 241 241 242 242 240 240 242 245 248 255 259 264 277 286 294 300 301 305 304 298 293 287 276 262
251 244 230 223 226 231 239 250 247 230 228 233 234 238 238 235 234 234 238 242 245 248 245 244 244 242 249 253 246 244 245 238 231 234 238 231 223 224 226 226 225 223 222 223 225 225 225 224 224 226 228 231 232 233 233 233 235 236 238 239 239 241 241 241 242 242 240 240 241 243 249 253 252 254 264 272 279 285 287 291 294 292 288 284 281 268
255 246 234 233 235 236 243 255 255 239 231 234 234 231 231 237 240 242 250 248 241 245 247 247 249 245 248 252 247 247 250 240 228 227 232 231 227 226 224 222 221 222 222 222 222 224 225 227 230 231 235 238 239 240 239 238 238 238 239 241 241 242 241 240 241 242 241 241 241 244 250 250 246 247 255 261 266 271 273 274 278 281 279 275 273 265
248 242 242 243 239 235 239 251 256 249 238 235 231 224 225 236 241 243 248 246 239 241 245 249 252 249 249 251 248 251 252 240 233 231 227 226 227 224 220 219 221 221 220 220 223 226 229 232 235 237 241 243 243 243 241 241 241 241 241 241 241 243 241 238 241 242 241 241 241 243 246 245 241 242 247 254 259 260 263 264 263 270 270 262 259 253
242 249 251 245 243 240 234 240 248 245 234 230 230 227 227 230 235 243 245 246 244 243 246 250 250 249 253 254 249 250 246 230 228 230 224 219 218 216 216 218 220 221 220 225 230 235 239 241 241 242 244 244 243 243 243 244 245 245 245 243 242 243 240 237 239 241 240 240 241 242 242 240 237 238 242 248 252 252 254 256 255 259 258 248 242 236
235 249 248 238 242 241 234 234 237 234 228 230 230 227 230 228 229 239 241 240 242 244 249 253 249 241 241 248 248 244 229 212 211 215 214 215 214 211 213 216 218 222 226 232 238 244 247 248 246 245 246 245 244 243 245 247 248 249 251 250 250 246 236 232 237 239 238 238 241 241 238 236 237 237 238 241 245 246 244 246 247 248 245 238 229 222
233 242 244 242 240 229 227 235 234 225 226 234 233 230 238 233 228 236 236 231 235 243 249 248 244 237 231 239 243 226 206 197 198 202 201 208 214 212 213 215 218 227 234 239 245 250 254 257 256 251 249 248 246 246 248 248 249 252 254 258 261 254 241 238 241 240 237 236 238 237 234 234 236 236 235 237 240 242 239 238 240 241 239 234 229 224
233 239 244 247 241 227 226 231 228 217 222 234 234 232 239 232 223 230 237 238 235 239 246 241 238 240 236 236 238 228 218 212 208 206 204 206 210 209 210 213 220 230 237 244 249 255 260 264 264 258 252 249 247 248 249 249 250 250 253 257 258 255 251 250 248 242 237 235 236 234 232 231 232 233 235 236 236 238 238 237 238 239 237 235 234 234
224 234 245 241 229 231 234 230 231 229 221 223 228 230 234 234 231 228 234 248 244 237 245 240 230 232 231 232 237 236 231 227 225 219 211 210 209 209 213 219 227 233 237 245 252 257 260 263 264 261 255 249 246 247 249 250 250 250 252 255 253 252 254 253 250 243 236 233 232 232 232 232 233 235 235 235 236 237 238 238 239 239 238 238 239 240
224 230 244 237 221 233 242 229 239 253 238 222 226 233 231 229 236 235 231 238 235 235 245 244 233 230 231 234 237 235 228 226 233 234 228 224 219 218 225 232 236 239 242 247 251 254 256 258 260 259 256 250 247 249 250 251 252 252 253 254 253 253 254 252 249 243 236 232 231 232 234 236 236 236 235 234 235 236 235 237 239 241 241 240 241 243
227 223 232 236 226 232 241 222 226 253 252 237 235 243 241 230 230 233 233 233 228 231 238 240 241 237 235 236 237 236 230 224 228 237 239 236 229 226 229 233 235 237 241 242 244 248 250 253 256 256 255 254 252 252 252 251 253 255 256 256 255 255 254 251 248 244 239 233 229 231 234 236 236 236 235 232 232 234 236 237 237 240 242 242 243 245
230 225 227 236 233 226 228 224 225 239 250 253 245 241 240 239 236 234 236 237 228 227 229 229 238 241 237 236 237 237 233 225 222 226 232 233 230 229 226 225 228 232 237 239 238 242 245 248 254 256 257 257 256 256 256 255 255 256 258 258 257 254 252 251 248 245 239 230 229 234 237 236 236 237 237 233 230 232 234 235 236 238 240 242 244 246
230 228 225 231 231 224 227 233 236 238 241 247 244 235 231 234 233 229 237 242 233 231 232 227 235 242 238 233 235 235 229 223 220 221 227 229 226 226 226 224 225 230 237 239 238 242 245 247 250 255 259 260 260 261 261 260 260 259 259 258 257 256 256 253 248 245 240 232 234 240 240 239 239 238 238 234 230 230 231 233 235 236 238 242 244 246
227 226 226 229 227 225 230 236 242 247 245 240 237 235 234 236 231 223 232 240 238 241 240 234 239 244 240 236 238 237 231 225 221 218 225 232 229 228 231 233 235 238 243 244 245 246 245 245 247 253 259 262 263 264 263 264 265 264 262 260 259 258 258 255 250 244 240 237 239 241 241 243 242 238 237 235 232 231 231 232 234 236 239 242 244 247
232 228 229 234 234 232 233 238 245 250 248 240 239 243 244 243 238 230 231 234 239 244 240 239 246 245 244 247 244 238 234 233 233 228 228 234 236 233 234 238 242 244 246 247 248 249 246 246 250 254 259 261 261 263 263 265 267 266 265 263 261 260 256 254 251 244 240 241 242 241 241 242 239 235 236 236 233 232 232 232 234 238 241 244 245 247
233 230 228 231 236 238 238 243 250 251 246 240 243 250 252 252 251 246 242 240 242 244 238 236 242 243 248 255 250 244 242 243 245 241 234 233 236 235 235 239 242 243 246 248 248 250 250 252 256 257 258 259 260 262 264 264 264 263 263 263 263 261 257 254 252 246 243 244 244 244 243 238 233 233 238 241 239 237 236 234 234 238 243 247 248 250
227 228 227 225 227 231 233 236 241 245 247 247 249 256 259 259 256 248 245 244 241 244 244 239 239 244 253 257 251 248 248 248 247 241 236 236 236 236 238 241 243 245 247 249 250 252 255 258 260 259 258 260 260 262 263 264 264 262 263 263 263 261 257 255 253 249 247 248 248 247 245 239 235 237 241 244 246 245 242 240 240 243 246 250 252 255
228 230 231 228 227 229 229 232 238 242 247 252 255 259 259 258 253 245 245 245 239 245 254 248 238 238 248 253 251 247 244 245 246 240 236 239 238 239 242 244 247 250 251 252 252 254 256 258 260 260 261 262 262 262 263 264 265 265 264 263 261 258 255 253 252 252 251 252 253 252 248 244 243 244 246 248 248 249 250 251 252 252 252 254 256 259
232 238 237 234 234 234 232 237 243 244 246 251 256 258 257 256 254 250 251 249 243 248 256 251 240 236 245 256 261 258 252 249 251 248 242 241 242 244 248 250 252 255 256 255 254 254 255 256 258 260 261 262 263 263 263 264 266 267 265 262 259 257 254 252 252 253 254 255 255 254 253 250 250 251 252 252 251 252 255 258 259 258 257 258 259 260
233 240 239 237 239 239 239 244 246 245 246 250 254 256 256 256 253 252 255 254 248 248 248 245 241 242 251 261 265 266 264 258 257 257 254 253 254 255 256 257 257 258 258 256 255 255 256 257 257 258 258 260 260 261 263 265 267 267 264 262 261 259 257 256 255 255 257 257 256 256 255 254 255 256 256 256 256 257 259 261 261 261 261 261 261 263
238 241 242 241 243 247 249 250 250 250 251 254 257 257 255 253 252 252 255 256 253 251 246 242 245 249 255 261 262 265 268 262 261 264 265 266 264 261 261 261 261 262 260 258 258 257 257 257 258 258 257 258 258 259 262 265 266 265 263 261 260 259 258 258 258 258 259 259 258 257 256 256 257 258 257 257 258 259 261 262 262 262 262 263 264 265
244 243 246 246 248 254 255 253 253 252 251 254 261 263 259 256 257 257 258 258 256 254 251 249 253 257 261 263 263 264 266 265 266 269 270 270 267 265 265 265 265 265 262 260 260 260 260 260 259 258 258 260 260 259 260 260 261 262 261 260 260 259 259 259 260 261 260 259 258 257 257 256 257 257 258 259 260 261 261 262 262 262 263 264 264 265
247 246 249 249 250 255 256 255 255 254 253 257 263 266 265 260 255 255 259 260 253 248 251 255 256 258 262 263 263 264 265 265 266 266 267 268 268 268 268 268 268 266 263 261 260 260 262 263 262 260 260 261 261 259 258 257 259 260 260 259 260 260 260 261 262 261 260 259 258 257 257 256 256 257 259 260 261 262 262 262 262 262 263 263 264 264
250 248 250 251 252 257 258 257 258 258 260 261 260 261 262 257 253 255 261 264 258 250 251 254 253 256 261 263 262 263 264 264 265 265 264 266 268 269 269 269 269 267 265 263 260 260 261 262 264 265 263 261 260 260 260 258 257 258 258 258 258 259 260 261 261 260 259 259 259 257 257 257 256 257 258 260 261 262 262 262 262 262 263 263 264 265
255 251 252 254 254 256 258 259 260 260 258 256 258 260 258 253 253 257 260 264 264 259 255 253 252 256 262 263 261 260 261 262 265 267 268 267 268 269 269 269 269 268 267 265 263 261 261 261 262 264 265 263 262 261 260 258 257 258 258 258 257 257 258 258 258 258 259 259 258 258 258 257 257 257 258 259 260 261 262 262 263 264 264 265 266 267
254 252 253 256 254 254 257 259 260 258 252 250 257 262 259 252 252 256 259 264 266 262 258 256 256 258 261 263 261 258 258 261 266 270 273 272 271 271 271 270 270 269 268 268 266 263 263 263 263 263 263 262 261 261 259 258 258 259 260 260 258 257 257 257 257 258 258 258 257 258 258 258 258 258 258 260 261 262 263 264 265 266 266 267 267 268
251 252 253 255 254 254 255 254 255 256 252 252 258 261 259 259 260 260 262 266 265 262 259 258 260 261 263 265 264 259 257 261 268 272 273 273 273 273 273 272 272 270 267 267 266 264 264 264 263 262 260 258 259 260 260 260 260 261 261 261 260 259 259 259 258 259 259 258 257 258 259 258 259 258 259 260 261 263 264 265 266 266 267 269 269 269
248 251 252 254 254 253 252 253 255 256 255 256 259 259 258 260 261 257 256 260 263 263 260 259 261 263 264 266 267 262 258 262 268 271 272 272 272 272 272 272 273 273 270 267 266 264 263 262 262 262 262 261 261 261 261 262 262 261 262 262 261 260 259 259 260 261 261 259 258 259 259 259 259 258 259 260 262 263 264 265 265 266 268 269 270 271
247 249 249 251 254 253 252 254 255 254 254 256 259 260 261 263 260 256 254 257 262 265 263 260 261 263 263 265 267 265 261 262 265 268 271 273 272 272 273 273 272 273 272 270 268 266 266 264 262 261 261 262 263 262 261 262 262 262 262 262 261 260 258 258 260 261 261 259 259 259 259 259 258 258 258 260 262 264 264 265 266 267 268 269 270 271
253 251 248 250 254 252 250 252 254 254 255 256 258 262 267 267 262 257 257 260 262 266 267 264 264 266 265 264 265 264 262 261 263 266 271 273 273 274 274 274 273 272 271 270 269 268 268 267 264 261 260 260 260 261 262 262 262 261 261 262 261 260 259 259 259 259 259 259 260 260 260 258 258 258 260 261 263 264 264 266 267 268 269 269 270 271
256 252 249 250 253 252 250 253 257 257 257 257 258 262 266 267 262 256 256 259 262 267 269 268 268 270 269 267 266 264 262 262 263 267 270 272 272 273 274 274 275 274 273 272 271 270 269 269 267 265 263 262 261 262 262 262 262 261 260 261 261 261 260 259 259 259 260 260 261 261 261 260 260 260 261 262 263 264 265 266 267 268 268 269 270 271
256 253 250 248 251 253 252 252 255 257 258 260 260 263 265 264 261 256 255 257 263 267 269 269 270 272 272 271 269 266 265 265 266 268 270 271 272 272 273 273 274 274 273 273 272 271 270 269 268 267 266 265 264 264 263 263 263 262 261 261 261 261 261 260 260 261 261 262 262 262 262 262 262 262 262 263 264 265 266 266 266 267 267 268 269 270
256 256 254 251 253 255 253 251 253 257 259 260 261 267 268 262 258 258 259 261 266 268 270 271 271 272 273 273 272 270 269 269 269 270 271 271 271 271 271 272 273 273 273 273 273 272 271 269 268 267 267 267 267 266 265 264 263 262 261 261 261 261 262 262 261 261 261 262 263 263 263 262 262 262 263 263 264 265 266 266 266 266 266 267 268 269
253 252 253 254 253 253 254 253 253 256 261 261 262 268 269 261 258 261 264 267 271 272 273 273 273 272 273 274 274 273 273 272 272 272 272 272 272 271 271 272 272 272 273 273 272 272 271 269 268 267 267 267 267 268 268 266 264 262 261 261 262 262 263 262 261 261 261 261 262 262 262 261 261 261 261 262 263 264 265 266 266 265 265 266 267 268
255 252 251 253 253 252 254 255 253 255 263 266 264 265 266 264 264 267 269 272 275 276 276 276 275 274 274 274 275 275 274 274 274 274 274 274 273 273 273 273 273 273 273 272 272 271 270 269 268 267 267 267 266 266 267 267 266 264 262 262 262 262 262 262 261 261 261 261 261 261 260 259 259 260 260 261 262 263 264 265 265 265 265 265 265 266
256 253 252 255 255 251 249 251 251 254 262 268 267 266 267 269 271 271 271 274 276 276 275 276 276 275 275 275 276 276 275 276 276 275 275 275 275 274 274 274 274 273 273 273 272 271 270 268 268 268 267 267 266 265 265 265 265 264 263 262 262 261 261 261 261 260 260 260 260 261 260 259 259 259 259 260 261 262 263 264 264 264 264 263 264 264
257 256 255 255 254 252 253 257 257 257 262 267 268 270 273 274 275 275 274 276 277 276 276 276 276 277 277 277 277 277 277 277 277 276 276 276 275 275 275 274 274 274 273 273 272 271 270 269 268 268 267 266 265 264 264 264 263 263 263 262 261 261 260 260 260 259 258 258 259 260 260 260 259 259 260 261 262 262 262 262 262 263 263 263 263 263
262 261 258 255 254 254 256 261 262 260 263 269 271 273 276 277 277 277 277 277 278 278 278 279 279 279 279 279 279 278 278 278 278 277 277 277 276 276 275 275 275 274 273 273 272 272 271 270 269 269 268 267 266 265 264 264 263 263 262 262 261 261 260 259 259 258 258 258 258 258 259 259 259 260 260 260 260 260 261 261 261 262 263 262 261 261
261 261 259 259 261 257 254 260 264 260 261 271 276 277 278 278 278 279 279 279 280 281 281 282 282 281 281 280 280 280 280 280 280 280 279 278 278 277 277 276 275 274 274 273 273 272 271 271 270 269 268 267 267 266 265 264 263 263 262 262 261 261 260 259 259 258 258 258 258 258 258 258 258 258 259 259 259 260 260 261 261 261 261 261 260 259
263 264 261 261 265 264 261 267 271 264 264 275 282 280 279 280 280 282 283 283 283 284 284 285 284 284 283 283 282 282 282 282 282 282 281 280 279 278 278 277 276 275 275 274 273 272 272 271 270 270 269 268 267 267 266 265 263 262 262 262 261 261 260 260 259 259 258 257 257 257 257 257 258 258 258 258 259 259 260 260 259 260 259 258 257 256
267 266 265 264 267 267 265 268 272 269 269 277 283 283 283 283 284 285 286 286 286 286 286 286 286 286 286 286 285 285 284 284 283 283 282 281 280 280 280 279 277 277 276 275 275 274 273 272 271 270 269 268 268 267 266 264 263 262 261 260 260 260 260 260 259 259 258 257 257 256 256 256 257 257 257 257 257 257 258 258 258 258 256 255 254 254
263 262 264 263 263 265 266 269 273 273 273 278 283 285 286 287 288 288 289 288 288 288 288 288 288 288 288 288 288 288 286 285 285 285 284 282 282 281 280 279 278 277 276 276 275 274 273 272 271 270 270 269 268 267 265 264 263 263 262 260 259 259 259 259 258 258 257 256 256 255 255 255 255 255 255 254 254 254 254 254 255 256 255 254 254 254